Location: Haulchin
(50.3172°N, 3.4360°E)
Time: 22:05:47
(UTC+00:00)

Cosmos 2333 Rocket - Pass Details

Date: 09 August 2024
Orbit: 838 x 863 km, 70.8° (Epoch: 09 September)

Event Time Altitude Azimuth Distance (km) Brightness Sun altitude
Exits shadow 01:33:25 37° 225° (SW) 1,301 2.7 -20.3°
Maximum altitude 01:35:44 74° 302° (WNW) 900 2.3 -20.1°
Drops below altitude 10° 01:41:32 10° 27° (NNE) 2,513 5.9 -19.7°
Sets 01:44:01 0° 30° (NNE) 3,455 7.1 -19.5°
